{"data":{"norad_id":68852,"epoch":"2026-09-20T00:15:32.433984Z","epoch_age_seconds":57646,"freshness":"FRESH","line1":"1 68852U 26094P   26263.01079206  .00015584  00000+0  48399-3 0  9992","line2":"2 68852  97.2833 276.1597 0000985 125.3834 234.7501 15.33449344 22587","mean_motion":15.33449344,"eccentricity":9.85e-5,"inclination_deg":97.2833,"raan_deg":276.1597,"arg_perigee_deg":125.3834,"mean_anomaly_deg":234.7501,"bstar":0.00048399,"rev_number":2258,"period_min":93.905938636601,"perigee_km":464.8561485968,"apogee_km":466.20435104501,"semimajor_km":6843.6672498209,"source":"CELESTRAK","updated_at":"2026-09-20T09:00:44.042676Z"}}